Weather in Cavallino-Treporti

Italy     45°27′13″N   12°27′31″E
temp.,
°C
wind,
m/s
gust,
m/s
humid.,
%
clouds,
%
prec.,
mm/h
press.,
hPa
HPBL,
m
14 may, fri
fri1423:00+16se2479100 2.3 1005115
02:00+14nne4693100 5.7 1006336
05:00+13ne448981 1.3 1007409
08:00+13nne559298 1.6 1008340
11:00+15nne4482100 0.1 1009505
14:00+17ene337053 0.1 1009896
17:00+16se3375100 0.4 1008480
20:00+15se2385100 3.3 1009200
15 may, sat
sat1523:00+14ene1189100 2.6 101082
02:00+14ne4589100 3.4 1010216
05:00+14ne3490100 1.3 1010186
08:00+13nne459399 3.1 1011207
11:00+14ne3485100 1.5 1012183
14:00+17se116316 1.7 1011629
17:00+17s3364100 0.1 1009529
20:00+16s6880100 0.9 1009304
16 may, sun
sun1623:00+16ssw687263 0.8 1009417
02:00+15nnw1275100 0.8 100893
05:00+14nne12867 0.1 100893
08:00+15nnw2286100 0.1 1010220
11:00+17sw117597 0.3 1010493
14:00+17s447598 0.7 1010520
17:00+18sse557577 0.1 1009461
20:00+17sse468294 0.2 1009286
17 may, mon
mon1723:00+17sw1185100 0.3 100929
02:00+16nne2390100 0.3 1008120
05:00+15nne2294100 0.3 1007128
08:00+16w118975 0.4 1007159
11:00+16sw3488100 0.3 1007293
14:00+18sw117815 1.3 1007163
17:00+17ne988340 1.3 1008550
20:00+14ne9147446 1.6 1009489
18 may, tue
tue1823:00+13ne9137475 0.5 1011575
02:00+12ne81277100 0.5 1012569
05:00+12ne81380100 0.0 1012525
08:00+12nne71078100 0.0 1013480
11:00+14nne5670100 0.1 1013413
14:00+17nnw3356100 0.2 1013775
17:00+16nw4562100 0.0 1012425
20:00+16nnw586789 0.0 1013296